INTELSAT 33E DEB, 61992

Orbit data source: Space-Track

INTELSAT 33E DEB, 61992 is space debris in GEO originally from a launch on Wed, 24 Aug 2016 UTC launched from the French Guiana (FRGUI). Debris objects in space refer to the collection of defunct objects orbiting the Earth. Examples of debris include non-operational satellites, rocket bodies, and fragments generated from explosions, collisions, or faulty payload assembly.

Not visible in the next 10 days
Identifier
61992, 2016-053J
Orbit
GEO
Country
Flag of UnknownUnknown / ITSO
Related business
Manufacturer
Boeing/ES
Mission
Spacecraft
Bus & Motor
Unknown
Mass
Unknown
Launch date (UTC)
2016-08-24 (9 years ago)
Launch vehicle
Unknown
Launch site
French Guiana (FRGUI)
Object type
Payload
Rocket body
Debris
Shape & HBR
Unknown shape, 1.1 m
Radar Cross Section
RCS unknown

Expand to show TLE details & history
Last TLE update: 1 day ago

TLE from 1 day ago
0 INTELSAT 33E DEB
1 61992U 16053J   25294.81782581  .00000127  00000-0  00000-0 0  9994
2 61992   0.9448  87.3696 0033335 268.1526   4.4812  1.00799573  3711
Epoch: 2025-10-21T19:37Z
TLE epoch observation values (Epoch: 2025-10-21T19:37:40.149Z)
Latitude
-0.92345°
Longitude
35.08259°
Altitude
35,498.873 km
Speed
3.09 km/s
True Right ascension
00h 00m 00s
True Declination
0° 55' 21"
Sunlit
Object was in daylight at epoch
Visualization orbit readout
Latitude
Unknown
Longitude
Unknown
Altitude
Unknown
Speed
Unknown
Apparent Right ascension
Unknown
Apparent Declination
Unknown
Sunlit
N/A
Visualization observer readout
Local Sidereal Time
15:50:16
Azimuth
Unknown
Elevation
Unknown
Doppler factor
Unknown
Orbital elements
Apogee altitude
35,780.425 km
Perigee altitude
35,500.288 km
Semi-major axis
42,018.493 km
Eccentricity
0.00333
Inclination
0.9448°
RAAN
87.3696°
Arg. of periapsis
268.1526°
True anomaly
4.51117°
Mean anomaly
4.4812°
Eccentric anomaly
4.49617°
Mean motion
0.25199 °/min
Orbital period
1,428.63 mins
BSTAR
0
Loading maneuver chart data...
Computing Atmospheric mass density...
Loading historical data...
Loading historical data...
Loading historical data...
Loading historical data...
Loading historical data...
Loading historical data...
Loading historical data...

Documentation

Showing up to 5 results
|